Time,TemperatureF,DewpointF,PressureIn,WindDirection,WindDirectionDegrees,WindSpeedMPH,WindSpeedGustMPH,Humidity,HourlyPrecipIn,Conditions,Clouds,dailyrainin,SoftwareType,DateUTC
2013-01-18 00:00:00,36.1,28.0,30.04,NNW,333,1.0,4.0,72,0.00,,OVC044,0.00,VWS V14.01,2013-01-18 05:00:00,
2013-01-18 00:01:00,36.1,28.0,30.04,NNW,333,0.0,1.0,72,0.00,,OVC043,0.00,VWS V14.01,2013-01-18 05:01:00,
2013-01-18 00:03:00,36.1,28.0,30.05,NNW,333,1.0,2.0,72,0.00,,OVC043,0.00,VWS V14.01,2013-01-18 05:03:00,
2013-01-18 00:08:00,36.0,27.5,30.05,NNW,333,0.0,2.0,71,0.00,,OVC043,0.00,VWS V14.01,2013-01-18 05:08:00,
2013-01-18 00:13:00,35.9,27.4,30.03,NNW,333,0.0,2.0,71,0.00,,OVC043,0.00,VWS V14.01,2013-01-18 05:13:00,
2013-01-18 00:18:00,35.9,27.8,30.03,NNW,333,0.0,2.0,72,0.00,,OVC043,0.00,VWS V14.01,2013-01-18 05:18:00,
2013-01-18 00:23:00,35.8,27.7,30.02,NNW,333,0.0,2.0,72,0.00,,OVC043,0.00,VWS V14.01,2013-01-18 05:23:00,
2013-01-18 00:28:00,35.8,28.3,30.02,NNW,333,0.0,2.0,74,0.00,,OVC043,0.00,VWS V14.01,2013-01-18 05:28:00,
2013-01-18 00:33:00,35.7,28.2,30.01,NNW,340,0.0,2.0,74,0.00,,OVC043,0.00,VWS V14.01,2013-01-18 05:33:00,
2013-01-18 00:38:00,35.7,27.9,30.03,NNW,340,0.0,2.0,73,0.00,,OVC043,0.00,VWS V14.01,2013-01-18 05:38:00,
2013-01-18 00:43:00,35.6,27.8,30.05,NNW,340,0.0,2.0,73,0.00,,OVC043,0.00,VWS V14.01,2013-01-18 05:43:00,
2013-01-18 00:48:00,35.5,27.7,30.06,NNW,340,0.0,2.0,73,0.00,,OVC043,0.00,VWS V14.01,2013-01-18 05:48:00,
2013-01-18 00:53:00,35.4,27.6,30.06,NNW,340,0.0,2.0,73,0.00,,OVC043,0.00,VWS V14.01,2013-01-18 05:53:00,
2013-01-18 00:58:00,35.4,27.6,30.06,NNW,340,0.0,2.0,73,0.00,,OVC043,0.00,VWS V14.01,2013-01-18 05:58:00,
2013-01-18 01:03:00,35.4,28.0,30.06,NNW,340,0.0,1.0,74,0.00,,OVC049,0.00,VWS V14.01,2013-01-18 06:03:00,
2013-01-18 01:08:00,35.4,28.3,30.05,NNW,340,0.0,1.0,75,0.00,,OVC049,0.00,VWS V14.01,2013-01-18 06:08:00,
2013-01-18 01:13:00,35.4,28.0,30.06,NNW,340,0.0,1.0,74,0.00,,OVC049,0.00,VWS V14.01,2013-01-18 06:13:00,
2013-01-18 01:18:00,35.4,27.6,30.06,NNW,340,0.0,1.0,73,0.00,,OVC049,0.00,VWS V14.01,2013-01-18 06:18:00,
2013-01-18 01:23:00,35.4,28.0,30.06,NNW,340,0.0,1.0,74,0.00,,OVC049,0.00,VWS V14.01,2013-01-18 06:23:00,
2013-01-18 01:28:00,35.3,27.9,30.05,NNW,340,2.0,2.0,74,0.00,,OVC049,0.00,VWS V14.01,2013-01-18 06:28:00,
2013-01-18 01:33:00,35.3,28.2,30.06,NNW,340,0.0,0.0,75,0.00,,OVC049,0.00,VWS V14.01,2013-01-18 06:33:00,
2013-01-18 01:38:00,35.2,28.1,30.07,NNW,340,1.0,1.0,75,0.00,,OVC049,0.00,VWS V14.01,2013-01-18 06:38:00,
2013-01-18 01:43:00,35.1,28.0,30.07,NNW,340,0.0,1.0,75,0.00,,OVC049,0.00,VWS V14.01,2013-01-18 06:43:00,
2013-01-18 01:48:00,35.1,27.7,30.09,NNW,340,0.0,2.0,74,0.00,,OVC049,0.00,VWS V14.01,2013-01-18 06:48:00,
2013-01-18 01:53:00,35.1,27.3,30.09,NNW,340,0.0,2.0,73,0.00,,OVC049,0.00,VWS V14.01,2013-01-18 06:53:00,
2013-01-18 01:58:00,35.1,27.3,30.09,NNW,340,0.0,2.0,73,0.00,,OVC049,0.00,VWS V14.01,2013-01-18 06:58:00,
2013-01-18 02:03:00,35.0,26.9,30.07,NNW,340,0.0,2.0,72,0.00,,BKN060,0.00,VWS V14.01,2013-01-18 07:03:00,
2013-01-18 02:08:00,35.0,27.2,30.05,NNW,340,0.0,2.0,73,0.00,,BKN060,0.00,VWS V14.01,2013-01-18 07:08:00,
2013-01-18 02:13:00,34.9,27.8,30.07,NNW,340,0.0,2.0,75,0.00,,BKN060,0.00,VWS V14.01,2013-01-18 07:13:00,
2013-01-18 02:18:00,34.7,26.6,30.08,NNW,340,0.0,2.0,72,0.00,,BKN060,0.00,VWS V14.01,2013-01-18 07:18:00,
2013-01-18 02:23:00,34.6,26.5,30.09,NNW,340,0.0,2.0,72,0.00,,BKN060,0.00,VWS V14.01,2013-01-18 07:23:00,
2013-01-18 02:28:00,34.7,26.3,30.09,NNW,338,0.0,2.0,71,0.00,,BKN060,0.00,VWS V14.01,2013-01-18 07:28:00,
2013-01-18 02:33:00,34.7,27.0,30.09,NNW,338,0.0,1.0,73,0.00,,BKN060,0.00,VWS V14.01,2013-01-18 07:33:00,
2013-01-18 02:38:00,34.6,26.9,30.09,NNW,338,0.0,1.0,73,0.00,,BKN060,0.00,VWS V14.01,2013-01-18 07:38:00,
2013-01-18 02:43:00,34.6,27.2,30.09,NNW,338,0.0,1.0,74,0.00,,BKN060,0.00,VWS V14.01,2013-01-18 07:43:00,
2013-01-18 02:48:00,34.6,27.5,30.09,NNW,338,0.0,1.0,75,0.00,,BKN060,0.00,VWS V14.01,2013-01-18 07:48:00,
2013-01-18 02:53:00,34.5,28.0,30.09,NNW,338,0.0,1.0,77,0.00,,BKN060,0.00,VWS V14.01,2013-01-18 07:53:00,
2013-01-18 02:58:00,34.5,28.7,30.09,NNW,338,0.0,1.0,79,0.00,,BKN060,0.00,VWS V14.01,2013-01-18 07:58:00,
2013-01-18 03:03:00,34.4,28.6,30.09,NNW,338,0.0,0.0,79,0.00,,OVC047,0.00,VWS V14.01,2013-01-18 08:03:00,
2013-01-18 03:08:00,34.4,28.9,30.09,NNW,338,3.0,3.0,80,0.00,,OVC047,0.00,VWS V14.01,2013-01-18 08:08:00,
2013-01-18 03:13:00,34.3,28.8,30.10,NW,325,4.0,4.0,80,0.00,,OVC047,0.00,VWS V14.01,2013-01-18 08:13:00,
2013-01-18 03:18:00,34.2,27.1,30.09,NNW,331,4.0,10.0,75,0.00,,OVC047,0.00,VWS V14.01,2013-01-18 08:18:00,
2013-01-18 03:23:00,34.3,26.6,30.10,NNW,338,3.0,10.0,73,0.00,,OVC047,0.00,VWS V14.01,2013-01-18 08:23:00,
2013-01-18 03:28:00,34.3,26.6,30.10,NW,323,4.0,10.0,73,0.00,,OVC047,0.00,VWS V14.01,2013-01-18 08:28:00,
2013-01-18 03:33:00,34.4,26.3,30.10,NNW,331,1.0,5.0,72,0.00,,OVC047,0.00,VWS V14.01,2013-01-18 08:33:00,
2013-01-18 03:39:00,34.4,26.3,30.10,NW,320,3.0,8.0,72,0.00,,OVC047,0.00,VWS V14.01,2013-01-18 08:39:00,
2013-01-18 03:44:00,34.4,26.7,30.11,NNW,327,5.0,8.0,73,0.00,,OVC047,0.00,VWS V14.01,2013-01-18 08:44:00,
2013-01-18 03:48:00,34.3,26.2,30.11,NNE,24,2.0,8.0,72,0.00,,OVC047,0.00,VWS V14.01,2013-01-18 08:48:00,
2013-01-18 03:53:00,34.3,26.2,30.11,NW,319,5.0,8.0,72,0.00,,OVC047,0.00,VWS V14.01,2013-01-18 08:53:00,
2013-01-18 03:59:00,34.2,26.1,30.11,WNW,300,0.0,9.0,72,0.00,,OVC047,0.00,VWS V14.01,2013-01-18 08:59:00,
2013-01-18 04:03:00,34.1,26.0,30.11,North,360,0.0,7.0,72,0.00,,BKN065,0.00,VWS V14.01,2013-01-18 09:03:00,
2013-01-18 04:09:00,34.0,25.9,30.12,NNW,342,3.0,7.0,72,0.00,,BKN065,0.00,VWS V14.01,2013-01-18 09:09:00,
2013-01-18 04:14:00,33.9,25.8,30.12,NW,319,1.0,7.0,72,0.00,,BKN065,0.00,VWS V14.01,2013-01-18 09:14:00,
2013-01-18 04:19:00,33.8,25.7,30.13,NNW,333,0.0,7.0,72,0.00,,BKN065,0.00,VWS V14.01,2013-01-18 09:19:00,
2013-01-18 04:24:00,33.7,26.0,30.13,NE,54,0.0,7.0,73,0.00,,BKN065,0.00,VWS V14.01,2013-01-18 09:24:00,
2013-01-18 04:29:00,33.6,25.9,30.13,NNW,331,0.0,7.0,73,0.00,,BKN065,0.00,VWS V14.01,2013-01-18 09:29:00,
2013-01-18 04:34:00,33.5,25.8,30.13,North,5,3.0,4.0,73,0.00,,BKN065,0.00,VWS V14.01,2013-01-18 09:34:00,
2013-01-18 04:39:00,33.4,26.0,30.14,North,355,0.0,4.0,74,0.00,,BKN065,0.00,VWS V14.01,2013-01-18 09:39:00,
2013-01-18 04:44:00,33.3,25.6,30.14,NNW,334,0.0,4.0,73,0.00,,BKN065,0.00,VWS V14.01,2013-01-18 09:44:00,
2013-01-18 04:49:00,33.2,25.8,30.15,NNW,338,1.0,4.0,74,0.00,,BKN065,0.00,VWS V14.01,2013-01-18 09:49:00,
2013-01-18 04:54:00,33.1,25.7,30.15,NNW,342,2.0,4.0,74,0.00,,BKN065,0.00,VWS V14.01,2013-01-18 09:54:00,
2013-01-18 04:59:00,33.0,25.6,30.15,North,360,1.0,4.0,74,0.00,,BKN065,0.00,VWS V14.01,2013-01-18 09:59:00,
2013-01-18 05:04:00,32.9,25.5,30.15,North,10,1.0,3.0,74,0.00,,OVC060,0.00,VWS V14.01,2013-01-18 10:04:00,
2013-01-18 05:09:00,32.8,25.4,30.16,NNE,28,2.0,7.0,74,0.00,,OVC060,0.00,VWS V14.01,2013-01-18 10:09:00,
2013-01-18 05:14:00,32.7,25.7,30.16,North,360,2.0,7.0,75,0.00,,OVC060,0.00,VWS V14.01,2013-01-18 10:14:00,
2013-01-18 05:19:00,32.6,25.6,30.16,NW,321,2.0,7.0,75,0.00,,OVC060,0.00,VWS V14.01,2013-01-18 10:19:00,
2013-01-18 05:24:00,32.6,25.6,30.17,NNW,333,3.0,7.0,75,0.00,,OVC060,0.00,VWS V14.01,2013-01-18 10:24:00,
2013-01-18 05:29:00,32.5,25.5,30.17,ENE,68,3.0,7.0,75,0.00,,OVC060,0.00,VWS V14.01,2013-01-18 10:29:00,
2013-01-18 05:34:00,32.4,25.4,30.18,NNW,331,3.0,6.0,75,0.00,,OVC060,0.00,VWS V14.01,2013-01-18 10:34:00,
2013-01-18 05:39:00,32.3,25.3,30.18,NW,314,1.0,7.0,75,0.00,,OVC060,0.00,VWS V14.01,2013-01-18 10:39:00,
2013-01-18 05:44:00,32.3,25.3,30.19,NW,326,4.0,12.0,75,0.00,,OVC060,0.00,VWS V14.01,2013-01-18 10:44:00,
2013-01-18 05:49:00,32.3,25.0,30.19,North,360,6.0,13.0,74,0.00,,OVC060,0.00,VWS V14.01,2013-01-18 10:49:00,
2013-01-18 05:54:00,32.3,25.0,30.20,WNW,300,4.0,13.0,74,0.00,,OVC060,0.00,VWS V14.01,2013-01-18 10:54:00,
2013-01-18 05:59:00,32.3,24.6,30.21,NW,321,2.0,13.0,73,0.00,,OVC060,0.00,VWS V14.01,2013-01-18 10:59:00,
2013-01-18 06:04:00,32.2,24.5,30.22,North,360,4.0,9.0,73,0.00,,BKN055,0.00,VWS V14.01,2013-01-18 11:04:00,
2013-01-18 06:09:00,31.9,24.2,30.22,NNW,341,9.0,12.0,73,0.00,,BKN055,0.00,VWS V14.01,2013-01-18 11:09:00,
2013-01-18 06:14:00,31.8,23.8,30.23,NNW,327,6.0,12.0,72,0.00,,BKN055,0.00,VWS V14.01,2013-01-18 11:14:00,
2013-01-18 06:19:00,31.7,23.7,30.23,NNW,328,3.0,12.0,72,0.00,,BKN055,0.00,VWS V14.01,2013-01-18 11:19:00,
2013-01-18 06:24:00,31.7,23.7,30.24,NW,311,3.0,12.0,72,0.00,,BKN055,0.00,VWS V14.01,2013-01-18 11:24:00,
2013-01-18 06:29:00,31.6,23.3,30.24,NNW,336,5.0,12.0,71,0.00,,BKN055,0.00,VWS V14.01,2013-01-18 11:29:00,
2013-01-18 06:34:00,31.5,22.5,30.25,NW,324,5.0,15.0,69,0.00,,BKN055,0.00,VWS V14.01,2013-01-18 11:34:00,
2013-01-18 06:39:00,31.3,21.3,30.25,NW,310,12.0,17.0,66,0.00,,BKN055,0.00,VWS V14.01,2013-01-18 11:39:00,
2013-01-18 06:44:00,31.2,20.5,30.26,NW,304,7.0,17.0,64,0.00,,BKN055,0.00,VWS V14.01,2013-01-18 11:44:00,
2013-01-18 06:49:00,31.0,19.1,30.26,NNW,342,9.0,18.0,61,0.00,,BKN055,0.00,VWS V14.01,2013-01-18 11:49:00,
2013-01-18 06:54:00,30.8,19.0,30.26,WNW,290,6.0,18.0,61,0.00,,BKN055,0.00,VWS V14.01,2013-01-18 11:54:00,
2013-01-18 06:59:00,30.6,18.4,30.27,North,355,11.0,19.0,60,0.00,,BKN055,0.00,VWS V14.01,2013-01-18 11:59:00,
2013-01-18 07:04:00,30.3,17.7,30.28,NNW,348,5.0,15.0,59,0.00,,FEW049,0.00,VWS V14.01,2013-01-18 12:04:00,
2013-01-18 07:09:00,30.1,17.9,30.28,NW,323,5.0,15.0,60,0.00,,FEW049,0.00,VWS V14.01,2013-01-18 12:09:00,
2013-01-18 07:14:00,29.9,17.7,30.28,NW,308,1.0,15.0,60,0.00,,FEW049,0.00,VWS V14.01,2013-01-18 12:14:00,
2013-01-18 07:19:00,29.7,18.3,30.29,NW,323,9.0,15.0,62,0.00,,FEW049,0.00,VWS V14.01,2013-01-18 12:19:00,
2013-01-18 07:24:00,29.4,17.2,30.30,NW,322,7.0,15.0,60,0.00,,FEW049,0.00,VWS V14.01,2013-01-18 12:24:00,
2013-01-18 07:29:00,29.2,17.1,30.31,NW,319,9.0,15.0,60,0.00,,FEW049,0.00,VWS V14.01,2013-01-18 12:29:00,
2013-01-18 07:34:00,29.1,16.6,30.31,NW,309,5.0,19.0,59,0.00,,FEW049,0.00,VWS V14.01,2013-01-18 12:34:00,
2013-01-18 07:40:00,29.0,15.7,30.32,NW,306,7.0,19.0,57,0.00,,FEW049,0.00,VWS V14.01,2013-01-18 12:40:00,
2013-01-18 07:45:00,28.9,16.0,30.33,WNW,294,9.0,19.0,58,0.00,,FEW049,0.00,VWS V14.01,2013-01-18 12:45:00,
2013-01-18 07:50:00,28.9,15.6,30.34,WNW,298,6.0,19.0,57,0.00,,FEW049,0.00,VWS V14.01,2013-01-18 12:50:00,
2013-01-18 07:55:00,28.9,15.2,30.34,NNW,329,11.0,19.0,56,0.00,,FEW049,0.00,VWS V14.01,2013-01-18 12:55:00,
2013-01-18 07:59:00,28.9,14.4,30.34,NW,305,5.0,5.0,54,0.00,,FEW049,0.00,VWS V14.01,2013-01-18 12:59:00,
2013-01-18 08:04:00,28.9,14.8,30.35,NW,304,8.0,8.0,55,0.00,,CLR,0.00,VWS V14.01,2013-01-18 13:04:00,
2013-01-18 08:10:00,28.9,14.4,30.35,NW,309,8.0,15.0,54,0.00,,CLR,0.00,VWS V14.01,2013-01-18 13:10:00,
2013-01-18 08:15:00,29.0,14.0,30.35,WNW,286,7.0,15.0,53,0.00,,CLR,0.00,VWS V14.01,2013-01-18 13:15:00,
2013-01-18 08:20:00,28.9,12.6,30.36,NNE,15,8.0,21.0,50,0.00,,CLR,0.00,VWS V14.01,2013-01-18 13:20:00,
2013-01-18 08:25:00,28.8,12.1,30.36,NW,325,11.0,21.0,49,0.00,,CLR,0.00,VWS V14.01,2013-01-18 13:25:00,
2013-01-18 08:30:00,28.8,10.6,30.37,WNW,284,9.0,12.0,46,0.00,,CLR,0.00,VWS V14.01,2013-01-18 13:30:00,
2013-01-18 08:35:00,28.8,10.6,30.37,West,269,7.0,19.0,46,0.00,,CLR,0.00,VWS V14.01,2013-01-18 13:35:00,
2013-01-18 08:40:00,29.1,10.4,30.38,NW,326,10.0,20.0,45,0.00,,CLR,0.00,VWS V14.01,2013-01-18 13:40:00,
2013-01-18 08:45:00,29.3,11.1,30.38,NW,325,6.0,20.0,46,0.00,,CLR,0.00,VWS V14.01,2013-01-18 13:45:00,
2013-01-18 08:50:00,29.7,11.5,30.39,North,350,11.0,20.0,46,0.00,,CLR,0.00,VWS V14.01,2013-01-18 13:50:00,
2013-01-18 08:55:00,30.1,11.8,30.39,WSW,241,7.0,20.0,46,0.00,,CLR,0.00,VWS V14.01,2013-01-18 13:55:00,
2013-01-18 09:00:00,30.4,11.6,30.40,NNW,332,5.0,8.0,45,0.00,,CLR,0.00,VWS V14.01,2013-01-18 14:00:00,
2013-01-18 09:05:00,30.6,11.3,30.41,WNW,293,4.0,15.0,44,0.00,,CLR,0.00,VWS V14.01,2013-01-18 14:05:00,
2013-01-18 09:10:00,30.9,11.6,30.41,NW,311,8.0,15.0,44,0.00,,CLR,0.00,VWS V14.01,2013-01-18 14:10:00,
2013-01-18 09:15:00,31.2,11.3,30.41,NW,309,15.0,19.0,43,0.00,,CLR,0.00,VWS V14.01,2013-01-18 14:15:00,
2013-01-18 09:20:00,31.3,11.4,30.42,NW,323,11.0,19.0,43,0.00,,CLR,0.00,VWS V14.01,2013-01-18 14:20:00,
2013-01-18 09:25:00,31.5,11.1,30.42,NW,309,9.0,19.0,42,0.00,,CLR,0.00,VWS V14.01,2013-01-18 14:25:00,
2013-01-18 09:30:00,31.2,10.2,30.43,WNW,300,5.0,8.0,41,0.00,,CLR,0.00,VWS V14.01,2013-01-18 14:30:00,
2013-01-18 09:35:00,31.7,11.8,30.43,WNW,292,7.0,14.0,43,0.00,,CLR,0.00,VWS V14.01,2013-01-18 14:35:00,
2013-01-18 09:40:00,32.1,11.6,30.43,NW,321,5.0,15.0,42,0.00,,CLR,0.00,VWS V14.01,2013-01-18 14:40:00,
2013-01-18 09:45:00,32.3,10.7,30.44,NW,311,10.0,17.0,40,0.00,,CLR,0.00,VWS V14.01,2013-01-18 14:45:00,
2013-01-18 09:50:00,32.0,10.4,30.45,NNW,334,11.0,18.0,40,0.00,,CLR,0.00,VWS V14.01,2013-01-18 14:50:00,
2013-01-18 09:55:00,31.5,10.5,30.45,NNW,327,16.0,20.0,41,0.00,,CLR,0.00,VWS V14.01,2013-01-18 14:55:00,
2013-01-18 10:00:00,31.4,9.9,30.44,NNE,14,10.0,11.0,40,0.00,,SCT055,0.00,VWS V14.01,2013-01-18 15:00:00,
2013-01-18 10:05:00,31.6,11.2,30.45,NNE,32,6.0,15.0,42,0.00,,SCT055,0.00,VWS V14.01,2013-01-18 15:05:00,
2013-01-18 10:10:00,32.0,11.5,30.45,NNW,333,13.0,19.0,42,0.00,,SCT055,0.00,VWS V14.01,2013-01-18 15:10:00,
2013-01-18 10:15:00,32.2,11.7,30.45,NNE,17,10.0,19.0,42,0.00,,SCT055,0.00,VWS V14.01,2013-01-18 15:15:00,
2013-01-18 10:20:00,32.3,10.7,30.45,NNW,336,10.0,21.0,40,0.00,,SCT055,0.00,VWS V14.01,2013-01-18 15:20:00,
2013-01-18 10:25:00,32.2,11.2,30.46,NW,308,4.0,21.0,41,0.00,,SCT055,0.00,VWS V14.01,2013-01-18 15:25:00,
2013-01-18 10:30:00,32.8,11.7,30.46,NNW,336,5.0,11.0,41,0.00,,SCT055,0.00,VWS V14.01,2013-01-18 15:30:00,
2013-01-18 10:35:00,33.2,12.1,30.46,NNW,327,6.0,15.0,41,0.00,,SCT055,0.00,VWS V14.01,2013-01-18 15:35:00,
2013-01-18 10:40:00,33.0,11.3,30.45,NW,326,6.0,15.0,40,0.00,,SCT055,0.00,VWS V14.01,2013-01-18 15:40:00,
2013-01-18 10:45:00,33.3,12.2,30.46,NW,321,11.0,16.0,41,0.00,,SCT055,0.00,VWS V14.01,2013-01-18 15:45:00,
2013-01-18 10:50:00,33.3,11.6,30.46,West,277,4.0,16.0,40,0.00,,SCT055,0.00,VWS V14.01,2013-01-18 15:50:00,
2013-01-18 10:55:00,32.9,11.8,30.46,NW,315,5.0,16.0,41,0.00,,SCT055,0.00,VWS V14.01,2013-01-18 15:55:00,
2013-01-18 11:00:00,33.2,12.1,30.46,North,355,6.0,13.0,41,0.00,,SCT050,0.00,VWS V14.01,2013-01-18 16:00:00,
2013-01-18 11:06:00,33.2,12.1,30.46,NW,319,6.0,13.0,41,0.00,,SCT050,0.00,VWS V14.01,2013-01-18 16:06:00,
2013-01-18 11:10:00,33.3,12.2,30.46,NW,315,2.0,13.0,41,0.00,,SCT050,0.00,VWS V14.01,2013-01-18 16:10:00,
2013-01-18 11:15:00,34.2,12.4,30.46,WNW,303,6.0,13.0,40,0.00,,SCT050,0.00,VWS V14.01,2013-01-18 16:15:00,
2013-01-18 11:20:00,34.4,12.0,30.46,North,5,2.0,13.0,39,0.00,,SCT050,0.00,VWS V14.01,2013-01-18 16:20:00,
2013-01-18 11:26:00,34.7,12.3,30.46,WNW,290,6.0,13.0,39,0.00,,SCT050,0.00,VWS V14.01,2013-01-18 16:26:00,
2013-01-18 11:31:00,34.8,11.2,30.46,NNW,328,6.0,13.0,37,0.00,,SCT050,0.00,VWS V14.01,2013-01-18 16:31:00,
2013-01-18 11:36:00,34.7,11.1,30.46,WNW,300,4.0,14.0,37,0.00,,SCT050,0.00,VWS V14.01,2013-01-18 16:36:00,
2013-01-18 11:41:00,34.3,11.4,30.46,NNW,327,3.0,16.0,38,0.00,,SCT050,0.00,VWS V14.01,2013-01-18 16:41:00,
2013-01-18 11:46:00,33.9,10.4,30.46,NNW,337,9.0,16.0,37,0.00,,SCT050,0.00,VWS V14.01,2013-01-18 16:46:00,
2013-01-18 11:51:00,33.6,11.3,30.46,NNW,336,2.0,16.0,39,0.00,,SCT050,0.00,VWS V14.01,2013-01-18 16:51:00,
2013-01-18 11:56:00,34.2,11.8,30.46,WSW,253,9.0,16.0,39,0.00,,SCT050,0.00,VWS V14.01,2013-01-18 16:56:00,
2013-01-18 12:01:00,34.3,11.4,30.45,WNW,284,5.0,9.0,38,0.00,,FEW050,0.00,VWS V14.01,2013-01-18 17:01:00,
2013-01-18 12:06:00,34.3,10.8,30.45,West,271,5.0,12.0,37,0.00,,FEW050,0.00,VWS V14.01,2013-01-18 17:06:00,
2013-01-18 12:11:00,34.7,11.7,30.45,NW,309,12.0,15.0,38,0.00,,FEW050,0.00,VWS V14.01,2013-01-18 17:11:00,
2013-01-18 12:16:00,34.5,10.3,30.45,WNW,299,3.0,15.0,36,0.00,,FEW050,0.00,VWS V14.01,2013-01-18 17:16:00,
2013-01-18 12:21:00,34.3,10.8,30.45,NW,322,10.0,15.0,37,0.00,,FEW050,0.00,VWS V14.01,2013-01-18 17:21:00,
2013-01-18 12:26:00,34.1,11.2,30.45,WNW,296,8.0,15.0,38,0.00,,FEW050,0.00,VWS V14.01,2013-01-18 17:26:00,
2013-01-18 12:31:00,34.1,10.6,30.45,NW,323,7.0,9.0,37,0.00,,FEW050,0.00,VWS V14.01,2013-01-18 17:31:00,
2013-01-18 12:36:00,34.3,10.8,30.44,NW,315,8.0,11.0,37,0.00,,FEW050,0.00,VWS V14.01,2013-01-18 17:36:00,
2013-01-18 12:41:00,34.6,10.4,30.44,NNW,342,4.0,11.0,36,0.00,,FEW050,0.00,VWS V14.01,2013-01-18 17:41:00,
2013-01-18 12:46:00,35.0,10.8,30.44,WNW,295,11.0,11.0,36,0.00,,FEW050,0.00,VWS V14.01,2013-01-18 17:46:00,
2013-01-18 12:51:00,35.2,10.3,30.44,NNW,333,4.0,11.0,35,0.00,,FEW050,0.00,VWS V14.01,2013-01-18 17:51:00,
2013-01-18 12:56:00,35.0,9.5,30.44,WNW,300,6.0,16.0,34,0.00,,FEW050,0.00,VWS V14.01,2013-01-18 17:56:00,
2013-01-18 13:01:00,34.2,9.4,30.44,West,261,8.0,13.0,35,0.00,,CLR,0.00,VWS V14.01,2013-01-18 18:01:00,
2013-01-18 13:06:00,33.9,9.1,30.44,WNW,288,6.0,15.0,35,0.00,,CLR,0.00,VWS V14.01,2013-01-18 18:06:00,
2013-01-18 13:11:00,34.0,9.2,30.44,WNW,293,4.0,15.0,35,0.00,,CLR,0.00,VWS V14.01,2013-01-18 18:11:00,
2013-01-18 13:16:00,34.2,8.8,30.44,NW,315,9.0,15.0,34,0.00,,CLR,0.00,VWS V14.01,2013-01-18 18:16:00,
2013-01-18 13:21:00,34.5,9.7,30.44,NNW,340,8.0,15.0,35,0.00,,CLR,0.00,VWS V14.01,2013-01-18 18:21:00,
2013-01-18 13:26:00,34.8,9.9,30.45,NW,326,4.0,15.0,35,0.00,,CLR,0.00,VWS V14.01,2013-01-18 18:26:00,
2013-01-18 13:31:00,34.9,9.4,30.45,NW,321,8.0,11.0,34,0.00,,CLR,0.00,VWS V14.01,2013-01-18 18:31:00,
2013-01-18 13:36:00,35.1,8.9,30.45,NW,319,6.0,11.0,33,0.00,,CLR,0.00,VWS V14.01,2013-01-18 18:36:00,
2013-01-18 13:41:00,35.6,10.7,30.45,WSW,248,7.0,13.0,35,0.00,,CLR,0.00,VWS V14.01,2013-01-18 18:41:00,
2013-01-18 13:46:00,35.5,9.9,30.45,NW,304,4.0,13.0,34,0.00,,CLR,0.00,VWS V14.01,2013-01-18 18:46:00,
2013-01-18 13:51:00,35.4,11.1,30.45,North,355,5.0,13.0,36,0.00,,CLR,0.00,VWS V14.01,2013-01-18 18:51:00,
2013-01-18 13:56:00,35.2,10.3,30.45,NNW,331,6.0,13.0,35,0.00,,CLR,0.00,VWS V14.01,2013-01-18 18:56:00,
2013-01-18 14:01:00,34.5,9.0,30.45,NNE,22,9.0,9.0,34,0.00,,CLR,0.00,VWS V14.01,2013-01-18 19:01:00,
2013-01-18 14:06:00,34.3,8.9,30.45,NNW,334,2.0,15.0,34,0.00,,CLR,0.00,VWS V14.01,2013-01-18 19:06:00,
2013-01-18 14:11:00,34.8,9.3,30.45,NW,321,8.0,15.0,34,0.00,,CLR,0.00,VWS V14.01,2013-01-18 19:11:00,
2013-01-18 14:16:00,35.4,9.2,30.44,NW,319,6.0,15.0,33,0.00,,CLR,0.00,VWS V14.01,2013-01-18 19:16:00,
2013-01-18 14:21:00,35.8,9.5,30.45,NNW,336,3.0,15.0,33,0.00,,CLR,0.00,VWS V14.01,2013-01-18 19:21:00,
2013-01-18 14:26:00,35.7,8.1,30.45,NNW,329,2.0,15.0,31,0.00,,CLR,0.00,VWS V14.01,2013-01-18 19:26:00,
2013-01-18 14:31:00,35.9,10.3,30.45,WNW,292,9.0,9.0,34,0.00,,CLR,0.00,VWS V14.01,2013-01-18 19:31:00,
2013-01-18 14:36:00,36.4,10.1,30.45,NW,323,2.0,9.0,33,0.00,,CLR,0.00,VWS V14.01,2013-01-18 19:36:00,
2013-01-18 14:42:00,36.6,9.6,30.45,NW,326,3.0,9.0,32,0.00,,CLR,0.00,VWS V14.01,2013-01-18 19:42:00,
2013-01-18 14:47:00,36.4,9.4,30.45,NW,310,5.0,11.0,32,0.00,,CLR,0.00,VWS V14.01,2013-01-18 19:47:00,
2013-01-18 14:52:00,36.0,9.7,30.46,NW,313,8.0,11.0,33,0.00,,CLR,0.00,VWS V14.01,2013-01-18 19:52:00,
2013-01-18 14:57:00,35.9,8.9,30.46,NNW,327,3.0,12.0,32,0.00,,CLR,0.00,VWS V14.01,2013-01-18 19:57:00,
2013-01-18 15:02:00,35.7,9.4,30.46,NW,319,12.0,12.0,33,0.00,,CLR,0.00,VWS V14.01,2013-01-18 20:02:00,
2013-01-18 15:07:00,35.2,8.3,30.46,WNW,286,2.0,14.0,32,0.00,,CLR,0.00,VWS V14.01,2013-01-18 20:07:00,
2013-01-18 15:12:00,35.0,8.8,30.46,West,273,4.0,14.0,33,0.00,,CLR,0.00,VWS V14.01,2013-01-18 20:12:00,
2013-01-18 15:17:00,34.8,8.6,30.46,West,279,2.0,14.0,33,0.00,,CLR,0.00,VWS V14.01,2013-01-18 20:17:00,
2013-01-18 15:22:00,35.0,8.8,30.46,NNW,335,3.0,14.0,33,0.00,,CLR,0.00,VWS V14.01,2013-01-18 20:22:00,
2013-01-18 15:27:00,35.2,9.0,30.46,NW,304,2.0,14.0,33,0.00,,CLR,0.00,VWS V14.01,2013-01-18 20:27:00,
2013-01-18 15:32:00,35.3,8.4,30.46,NW,325,6.0,6.0,32,0.00,,CLR,0.00,VWS V14.01,2013-01-18 20:32:00,
2013-01-18 15:37:00,35.5,8.6,30.46,WNW,292,5.0,6.0,32,0.00,,CLR,0.00,VWS V14.01,2013-01-18 20:37:00,
2013-01-18 15:42:00,35.5,7.9,30.46,NW,306,2.0,7.0,31,0.00,,CLR,0.00,VWS V14.01,2013-01-18 20:42:00,
2013-01-18 15:47:00,35.1,8.2,30.47,WNW,290,3.0,7.0,32,0.00,,CLR,0.00,VWS V14.01,2013-01-18 20:47:00,
2013-01-18 15:52:00,33.7,7.7,30.46,NW,305,2.0,7.0,33,0.00,,CLR,0.00,VWS V14.01,2013-01-18 20:52:00,
2013-01-18 15:57:00,33.0,8.4,30.47,NW,319,4.0,7.0,35,0.00,,CLR,0.00,VWS V14.01,2013-01-18 20:57:00,
2013-01-18 16:02:00,32.8,8.2,30.47,NW,308,2.0,4.0,35,0.00,,CLR,0.00,VWS V14.01,2013-01-18 21:02:00,
2013-01-18 16:07:00,32.5,7.9,30.47,WNW,286,3.0,9.0,35,0.00,,CLR,0.00,VWS V14.01,2013-01-18 21:07:00,
2013-01-18 16:12:00,32.2,8.3,30.47,NW,309,0.0,9.0,36,0.00,,CLR,0.00,VWS V14.01,2013-01-18 21:12:00,
2013-01-18 16:17:00,32.1,8.8,30.47,NNW,338,1.0,9.0,37,0.00,,CLR,0.00,VWS V14.01,2013-01-18 21:17:00,
2013-01-18 16:22:00,32.2,8.9,30.48,NW,309,3.0,9.0,37,0.00,,CLR,0.00,VWS V14.01,2013-01-18 21:22:00,
2013-01-18 16:27:00,32.3,9.0,30.48,NNW,327,4.0,9.0,37,0.00,,CLR,0.00,VWS V14.01,2013-01-18 21:27:00,
2013-01-18 16:32:00,32.1,8.8,30.47,WNW,299,2.0,7.0,37,0.00,,CLR,0.00,VWS V14.01,2013-01-18 21:32:00,
2013-01-18 16:37:00,31.7,8.4,30.48,WNW,302,3.0,7.0,37,0.00,,CLR,0.00,VWS V14.01,2013-01-18 21:37:00,
2013-01-18 16:42:00,31.4,9.3,30.48,West,277,3.0,7.0,39,0.00,,CLR,0.00,VWS V14.01,2013-01-18 21:42:00,
2013-01-18 16:47:00,30.9,8.9,30.48,NW,315,4.0,7.0,39,0.00,,CLR,0.00,VWS V14.01,2013-01-18 21:47:00,
2013-01-18 16:52:00,30.6,8.6,30.48,WNW,283,0.0,7.0,39,0.00,,CLR,0.00,VWS V14.01,2013-01-18 21:52:00,
2013-01-18 16:57:00,30.3,8.9,30.49,NW,320,0.0,7.0,40,0.00,,CLR,0.00,VWS V14.01,2013-01-18 21:57:00,
2013-01-18 17:02:00,30.1,8.7,30.48,NW,320,2.0,2.0,40,0.00,,CLR,0.00,VWS V14.01,2013-01-18 22:02:00,
2013-01-18 17:07:00,29.9,9.1,30.49,NW,320,1.0,2.0,41,0.00,,CLR,0.00,VWS V14.01,2013-01-18 22:07:00,
2013-01-18 17:12:00,29.6,8.8,30.49,WSW,245,0.0,2.0,41,0.00,,CLR,0.00,VWS V14.01,2013-01-18 22:12:00,
2013-01-18 17:17:00,29.3,9.1,30.49,South,175,2.0,3.0,42,0.00,,CLR,0.00,VWS V14.01,2013-01-18 22:17:00,
2013-01-18 17:22:00,29.0,8.8,30.49,South,175,0.0,3.0,42,0.00,,CLR,0.00,VWS V14.01,2013-01-18 22:22:00,
2013-01-18 17:27:00,28.7,10.6,30.49,South,175,0.0,3.0,46,0.00,,CLR,0.00,VWS V14.01,2013-01-18 22:27:00,
2013-01-18 17:32:00,28.5,10.9,30.49,South,175,0.0,0.0,47,0.00,,CLR,0.00,VWS V14.01,2013-01-18 22:32:00,
2013-01-18 17:37:00,28.5,9.9,30.49,South,175,0.0,1.0,45,0.00,,CLR,0.00,VWS V14.01,2013-01-18 22:37:00,
2013-01-18 17:42:00,28.4,9.8,30.49,South,175,0.0,1.0,45,0.00,,CLR,0.00,VWS V14.01,2013-01-18 22:42:00,
2013-01-18 17:47:00,28.2,10.6,30.49,South,175,0.0,1.0,47,0.00,,CLR,0.00,VWS V14.01,2013-01-18 22:47:00,
2013-01-18 17:52:00,28.1,9.5,30.49,South,175,0.0,1.0,45,0.00,,CLR,0.00,VWS V14.01,2013-01-18 22:52:00,
2013-01-18 17:57:00,27.9,10.8,30.49,South,175,0.0,1.0,48,0.00,,CLR,0.00,VWS V14.01,2013-01-18 22:57:00,
2013-01-18 18:02:00,27.7,11.9,30.49,South,175,0.0,0.0,51,0.00,,CLR,0.00,VWS V14.01,2013-01-18 23:02:00,
2013-01-18 18:07:00,27.5,10.9,30.49,South,174,0.0,0.0,49,0.00,,CLR,0.00,VWS V14.01,2013-01-18 23:07:00,
2013-01-18 18:12:00,27.3,10.2,30.49,South,172,0.0,2.0,48,0.00,,CLR,0.00,VWS V14.01,2013-01-18 23:12:00,
2013-01-18 18:17:00,27.2,11.0,30.49,South,172,0.0,2.0,50,0.00,,CLR,0.00,VWS V14.01,2013-01-18 23:17:00,
2013-01-18 18:22:00,27.0,11.7,30.50,South,172,0.0,2.0,52,0.00,,CLR,0.00,VWS V14.01,2013-01-18 23:22:00,
2013-01-18 18:27:00,26.8,10.7,30.50,South,172,0.0,2.0,50,0.00,,CLR,0.00,VWS V14.01,2013-01-18 23:27:00,
2013-01-18 18:32:00,26.7,11.0,30.50,South,172,0.0,0.0,51,0.00,,CLR,0.00,VWS V14.01,2013-01-18 23:32:00,
2013-01-18 18:38:00,26.7,10.6,30.50,South,172,0.0,1.0,50,0.00,,CLR,0.00,VWS V14.01,2013-01-18 23:38:00,
2013-01-18 18:43:00,26.6,10.9,30.50,South,172,0.0,1.0,51,0.00,,CLR,0.00,VWS V14.01,2013-01-18 23:43:00,
2013-01-18 18:47:00,26.6,10.9,30.50,South,172,0.0,1.0,51,0.00,,CLR,0.00,VWS V14.01,2013-01-18 23:47:00,
2013-01-18 18:52:00,26.5,12.1,30.50,South,172,0.0,1.0,54,0.00,,CLR,0.00,VWS V14.01,2013-01-18 23:52:00,
2013-01-18 18:57:00,26.5,12.1,30.50,South,172,0.0,1.0,54,0.00,,CLR,0.00,VWS V14.01,2013-01-18 23:57:00,
2013-01-18 19:02:00,26.5,12.9,30.50,South,172,0.0,1.0,56,0.00,,CLR,0.00,VWS V14.01,2013-01-19 00:02:00,
2013-01-18 19:08:00,26.4,14.4,30.50,South,172,0.0,2.0,60,0.00,,CLR,0.00,VWS V14.01,2013-01-19 00:08:00,
2013-01-18 19:13:00,26.3,13.9,30.50,South,172,0.0,2.0,59,0.00,,CLR,0.00,VWS V14.01,2013-01-19 00:13:00,
2013-01-18 19:18:00,26.3,13.6,30.50,South,172,0.0,2.0,58,0.00,,CLR,0.00,VWS V14.01,2013-01-19 00:18:00,
2013-01-18 19:23:00,26.2,13.4,30.50,South,171,1.0,2.0,58,0.00,,CLR,0.00,VWS V14.01,2013-01-19 00:23:00,
2013-01-18 19:28:00,26.1,14.9,30.50,South,171,0.0,2.0,62,0.00,,CLR,0.00,VWS V14.01,2013-01-19 00:28:00,
2013-01-18 19:33:00,26.1,15.6,30.50,South,171,0.0,1.0,64,0.00,,CLR,0.00,VWS V14.01,2013-01-19 00:33:00,
2013-01-18 19:38:00,26.0,15.9,30.50,South,171,1.0,1.0,65,0.00,,CLR,0.00,VWS V14.01,2013-01-19 00:38:00,
2013-01-18 19:43:00,26.0,15.5,30.50,South,171,0.0,2.0,64,0.00,,CLR,0.00,VWS V14.01,2013-01-19 00:43:00,
2013-01-18 19:48:00,25.9,15.4,30.50,South,171,1.0,2.0,64,0.00,,CLR,0.00,VWS V14.01,2013-01-19 00:48:00,
2013-01-18 19:53:00,25.8,15.0,30.49,South,169,0.0,2.0,63,0.00,,CLR,0.00,VWS V14.01,2013-01-19 00:53:00,
2013-01-18 19:58:00,25.8,15.0,30.49,South,169,0.0,2.0,63,0.00,,CLR,0.00,VWS V14.01,2013-01-19 00:58:00,
2013-01-18 20:03:00,25.8,14.6,30.49,South,169,0.0,1.0,62,0.00,,CLR,0.00,VWS V14.01,2013-01-19 01:03:00,
2013-01-18 20:08:00,25.8,14.6,30.49,SE,127,0.0,2.0,62,0.00,,CLR,0.00,VWS V14.01,2013-01-19 01:08:00,
2013-01-18 20:13:00,25.8,14.2,30.49,SSE,163,2.0,3.0,61,0.00,,CLR,0.00,VWS V14.01,2013-01-19 01:13:00,
2013-01-18 20:18:00,25.8,14.2,30.49,SSE,157,1.0,3.0,61,0.00,,CLR,0.00,VWS V14.01,2013-01-19 01:18:00,
2013-01-18 20:23:00,25.7,13.8,30.49,ESE,120,1.0,3.0,60,0.00,,CLR,0.00,VWS V14.01,2013-01-19 01:23:00,
2013-01-18 20:28:00,25.8,13.9,30.48,ESE,121,3.0,3.0,60,0.00,,CLR,0.00,VWS V14.01,2013-01-19 01:28:00,
2013-01-18 20:33:00,25.8,14.6,30.48,SE,128,2.0,4.0,62,0.00,,CLR,0.00,VWS V14.01,2013-01-19 01:33:00,
2013-01-18 20:38:00,25.8,13.5,30.48,South,177,1.0,4.0,59,0.00,,CLR,0.00,VWS V14.01,2013-01-19 01:38:00,
2013-01-18 20:43:00,26.0,13.3,30.48,SE,144,3.0,4.0,58,0.00,,CLR,0.00,VWS V14.01,2013-01-19 01:43:00,
2013-01-18 20:48:00,26.0,14.0,30.48,South,169,1.0,4.0,60,0.00,,CLR,0.00,VWS V14.01,2013-01-19 01:48:00,
2013-01-18 20:53:00,25.9,13.9,30.48,SSE,154,2.0,5.0,60,0.00,,CLR,0.00,VWS V14.01,2013-01-19 01:53:00,
2013-01-18 20:58:00,26.0,13.6,30.48,SE,145,3.0,5.0,59,0.00,,CLR,0.00,VWS V14.01,2013-01-19 01:58:00,
2013-01-18 21:03:00,26.0,13.6,30.48,South,174,4.0,7.0,59,0.00,,CLR,0.00,VWS V14.01,2013-01-19 02:03:00,
2013-01-18 21:08:00,26.0,13.6,30.48,South,174,4.0,7.0,59,0.00,,CLR,0.00,VWS V14.01,2013-01-19 02:08:00,
2013-01-18 21:13:00,26.0,13.6,30.48,South,174,4.0,7.0,59,0.00,,CLR,0.00,VWS V14.01,2013-01-19 02:13:00,
2013-01-18 21:18:00,26.0,13.6,30.48,South,174,4.0,7.0,59,0.00,,CLR,0.00,VWS V14.01,2013-01-19 02:18:00,
2013-01-18 21:23:00,26.0,13.6,30.48,South,174,4.0,7.0,59,0.00,,CLR,0.00,VWS V14.01,2013-01-19 02:23:00,
2013-01-18 21:28:00,26.0,13.6,30.48,South,174,4.0,7.0,59,0.00,,CLR,0.00,VWS V14.01,2013-01-19 02:28:00,
2013-01-18 21:33:00,26.0,13.6,30.48,South,174,4.0,7.0,59,0.00,,CLR,0.00,VWS V14.01,2013-01-19 02:33:00,
2013-01-18 21:38:00,26.0,13.6,30.48,South,174,4.0,7.0,59,0.00,,CLR,0.00,VWS V14.01,2013-01-19 02:38:00,
2013-01-18 21:43:00,26.0,13.6,30.48,South,174,4.0,7.0,59,0.00,,CLR,0.00,VWS V14.01,2013-01-19 02:43:00,
2013-01-18 21:48:00,26.0,13.6,30.48,South,174,4.0,7.0,59,0.00,,CLR,0.00,VWS V14.01,2013-01-19 02:48:00,
2013-01-18 21:53:00,26.0,13.6,30.48,South,174,4.0,7.0,59,0.00,,CLR,0.00,VWS V14.01,2013-01-19 02:53:00,
2013-01-18 21:58:00,26.0,13.6,30.48,South,174,4.0,7.0,59,0.00,,CLR,0.00,VWS V14.01,2013-01-19 02:58:00,
2013-01-18 22:03:00,26.0,13.6,30.48,South,174,4.0,7.0,59,0.00,,CLR,0.00,VWS V14.01,2013-01-19 03:03:00,
2013-01-18 22:08:00,26.0,13.6,30.48,South,174,4.0,7.0,59,0.00,,CLR,0.00,VWS V14.01,2013-01-19 03:08:00,
2013-01-18 22:13:00,26.0,13.6,30.48,South,174,4.0,7.0,59,0.00,,CLR,0.00,VWS V14.01,2013-01-19 03:13:00,
2013-01-18 22:18:00,26.0,13.6,30.48,South,174,4.0,7.0,59,0.00,,CLR,0.00,VWS V14.01,2013-01-19 03:18:00,
2013-01-18 22:23:00,26.0,13.6,30.48,South,174,4.0,7.0,59,0.00,,CLR,0.00,VWS V14.01,2013-01-19 03:23:00,
2013-01-18 22:28:00,26.0,13.6,30.48,South,174,4.0,7.0,59,0.00,,CLR,0.00,VWS V14.01,2013-01-19 03:28:00,
2013-01-18 22:33:00,26.0,13.6,30.48,South,174,4.0,7.0,59,0.00,,CLR,0.00,VWS V14.01,2013-01-19 03:33:00,
2013-01-18 22:38:00,26.0,13.6,30.48,South,174,4.0,7.0,59,0.00,,CLR,0.00,VWS V14.01,2013-01-19 03:38:00,
2013-01-18 22:43:00,26.0,13.6,30.48,South,174,4.0,7.0,59,0.00,,CLR,0.00,VWS V14.01,2013-01-19 03:43:00,
2013-01-18 22:48:00,26.0,13.6,30.48,South,174,4.0,7.0,59,0.00,,CLR,0.00,VWS V14.01,2013-01-19 03:48:00,
2013-01-18 22:53:00,26.0,13.6,30.48,South,174,4.0,7.0,59,0.00,,CLR,0.00,VWS V14.01,2013-01-19 03:53:00,
2013-01-18 22:59:00,26.0,13.6,30.48,South,174,4.0,7.0,59,0.00,,CLR,0.00,VWS V14.01,2013-01-19 03:59:00,
2013-01-18 23:04:00,26.0,13.6,30.48,South,174,4.0,7.0,59,0.00,,CLR,0.00,VWS V14.01,2013-01-19 04:04:00,
2013-01-18 23:09:00,26.0,13.6,30.48,South,174,4.0,7.0,59,0.00,,CLR,0.00,VWS V14.01,2013-01-19 04:09:00,
2013-01-18 23:14:00,26.0,13.6,30.48,South,174,4.0,7.0,59,0.00,,CLR,0.00,VWS V14.01,2013-01-19 04:14:00,
2013-01-18 23:19:00,26.0,13.6,30.48,South,174,4.0,7.0,59,0.00,,CLR,0.00,VWS V14.01,2013-01-19 04:19:00,
2013-01-18 23:24:00,26.0,13.6,30.48,South,174,4.0,7.0,59,0.00,,CLR,0.00,VWS V14.01,2013-01-19 04:24:00,
2013-01-18 23:29:00,26.0,13.6,30.48,South,174,4.0,7.0,59,0.00,,CLR,0.00,VWS V14.01,2013-01-19 04:29:00,
2013-01-18 23:34:00,26.0,13.6,30.48,South,174,4.0,7.0,59,0.00,,CLR,0.00,VWS V14.01,2013-01-19 04:34:00,
2013-01-18 23:39:00,26.0,13.6,30.48,South,174,4.0,7.0,59,0.00,,CLR,0.00,VWS V14.01,2013-01-19 04:39:00,
2013-01-18 23:44:00,26.0,13.6,30.48,South,174,4.0,7.0,59,0.00,,CLR,0.00,VWS V14.01,2013-01-19 04:44:00,
2013-01-18 23:49:00,26.0,13.6,30.48,South,174,4.0,7.0,59,0.00,,CLR,0.00,VWS V14.01,2013-01-19 04:49:00,
2013-01-18 23:54:00,26.0,13.6,30.48,South,174,4.0,7.0,59,0.00,,CLR,0.00,VWS V14.01,2013-01-19 04:54:00,
2013-01-18 23:59:00,26.0,13.6,30.48,South,174,4.0,7.0,59,0.00,,CLR,0.00,VWS V14.01,2013-01-19 04:59:00,